Погода в Торремолиносе

Испания     36°36′21″N   4°32′29″W
темп.,
°C
ветер,
м/с
пор.,
м/с
влажн.,
%
обл.,
%
осадки,
мм/ч
давл.,
гПа
погр.,
м
15 августа, пн
пн1523:00+26зюз910540 0.0 1010170
02:00+24зюз1011630 0.0 1011243
05:00+24з67620 0.0 1010155
08:00+24з55620 0.0 1010126
11:00+24зюз76650 0.0 1011279
14:00+25юз99630 0.0 1011370
17:00+26юз1013600 0.0 1009321
20:00+27зюз1115530 0.0 1007259
16 августа, вт
вт1623:00+25зюз1011620 0.0 1009187
02:00+24зюз910670 0.0 1010222
05:00+24з66610 0.0 1009147
08:00+24з55610 0.0 1009148
11:00+24зюз55620 0.0 1010202
14:00+25зюз98620 0.0 1010419
17:00+26юз911610 0.0 1008426
20:00+27зюз78530 0.0 1007330
17 августа, ср
ср1723:00+26зюз56600 0.0 100986
02:00+25зюз55630 0.0 100988
05:00+24з45650 0.0 1008146
08:00+24зсз44600 0.0 100989
11:00+25зюз44550 0.0 1010191
14:00+25юз1011590 0.0 1010427
17:00+25юз1012610 0.0 1009380
20:00+26зюз99560 0.0 1008374
18 августа, чт
чт1823:00+26зюз67593 0.0 101096
02:00+25з44550 0.0 101054
05:00+24з45550 0.0 101069
08:00+24зсз44520 0.0 101158
11:00+26з22500 0.0 101287
14:00+24ю22600 0.0 1013180
17:00+26всв55650 0.0 1013360
20:00+25всв56760 0.0 1014207
19 августа, пт
пт1923:00+24в45820 0.0 1016131
02:00+24всв45850 0.0 1016169
05:00+24св45863 0.0 1016186
08:00+24св45832 0.0 1017194
11:00+24всв46830 0.0 1018252
14:00+25в47851 0.0 1018362
17:00+25всв46841 0.0 1016337
20:00+25всв46850 0.0 1016275